Theta_e
344 345 348 349 349 347 349 350 350 349 347 346 331 326 318 317 318 318 317 317 317 319 320 322 323 323 325 327 328 329 329 331 335 334 334 332 329 330 331 331 331 333 337
346 347 349 350 349 345 346 349 348 346 345 344 331 326 318 320 320 318 319 319 321 321 322 322 321 321 322 325 325 325 330 333 335 337 335 336 334 333 333 333 332 337 336
348 348 350 350 350 346 345 348 347 345 347 344 328 320 320 322 322 323 319 318 321 321 322 321 322 322 322 320 321 319 321 324 328 331 332 334 335 335 333 333 335 337 338
348 348 349 350 350 349 348 349 348 346 348 342 327 320 322 325 325 325 322 325 327 326 325 323 319 320 317 317 318 320 322 323 321 324 327 329 332 333 331 332 335 334 335
348 349 349 349 350 349 349 350 348 346 347 343 327 321 324 326 326 326 327 329 329 328 326 324 322 319 319 316 318 324 319 314 314 321 324 327 328 330 332 332 333 334 333
349 349 350 350 350 349 351 352 350 348 347 344 322 322 327 328 328 328 328 329 329 329 326 322 322 322 323 320 315 314 313 314 310 311 323 325 328 330 331 331 331 331 333
350 350 350 350 350 353 350 345 345 345 345 342 325 325 328 330 329 328 328 329 330 328 324 319 321 325 321 324 321 316 317 318 316 311 312 324 325 328 326 328 329 328 329
350 350 351 350 348 347 336 334 335 338 344 341 327 326 330 330 329 329 330 330 330 326 325 320 317 316 322 325 325 319 316 316 317 313 309 311 317 320 324 324 327 326 327
350 350 349 347 345 342 340 335 331 334 338 340 330 328 329 330 328 329 330 328 326 325 321 316 313 318 323 323 324 320 318 316 315 309 308 307 310 317 323 326 327 327 326
347 345 343 341 340 337 335 339 337 334 332 339 332 329 327 329 329 328 327 324 321 319 314 310 310 315 320 319 318 318 316 313 313 314 312 310 310 309 319 322 324 326 327
342 338 334 335 334 334 335 335 336 336 335 338 331 328 326 330 330 329 327 321 320 318 312 311 313 313 310 309 310 311 312 316 317 318 318 312 313 311 315 320 320 323 326
336 334 330 331 331 331 333 332 337 336 339 336 329 327 327 331 331 330 327 322 322 322 317 319 321 320 318 315 314 314 315 317 318 318 319 318 319 320 319 320 323 324 324
333 331 333 333 335 331 331 335 336 335 335 333 332 333 333 330 330 327 322 324 324 324 324 323 322 321 320 320 319 317 315 315 314 316 319 319 318 320 320 320 319 323 325
336 332 333 335 335 334 332 331 332 332 332 331 331 331 326 320 323 326 327 327 327 327 327 327 327 325 322 321 320 319 318 317 317 316 316 318 319 319 318 317 316 320 320
334 334 334 329 329 329 325 326 327 327 328 325 322 321 323 326 326 327 323 322 324 325 326 327 327 328 327 324 321 320 318 317 316 317 317 315 316 319 320 319 319 318 319
334 334 331 328 327 330 329 328 328 327 327 327 327 328 326 325 323 323 323 325 324 321 319 321 325 326 326 325 322 319 317 317 318 319 318 317 315 316 320 321 320 320 321
329 331 330 328 329 328 328 328 328 328 328 328 327 327 327 325 325 326 326 328 328 326 322 320 319 319 319 319 319 319 319 319 319 320 320 320 320 320 318 320 322 322 322
327 325 326 327 326 325 325 326 328 329 328 328 328 328 328 328 328 328 325 325 326 326 324 322 321 321 321 321 321 321 320 321 320 321 322 323 322 322 321 321 321 322 322
330 330 329 329 329 329 329 329 328 328 326 324 321 318 315 313 312 311 311 311 313 315 316 316 317 318 318 318 317 316 316 316 316 317 318 318 320 320 321 321 321 321 320
330 330 329 327 325 324 322 321 320 319 318 316 315 314 313 312 311 309 308 307 308 308 308 309 305 305 308 306 304 303 304 304 304 304 304 303 305 306 308 311 315 318 317
327 326 325 325 323 322 321 320 319 317 316 314 313 311 309 309 308 307 306 306 307 307 306 307 307 307 307 307 306 307 306 306 306 305 305 305 304 304 303 302 302 302 305
322 321 318 315 313 312 312 313 312 312 312 311 309 307 306 307 307 307 308 307 307 306 306 305 306 306 306 306 306 306 306 306 305 305 305 304 304 304 304 303 303 303 304
309 308 307 306 306 305 306 306 307 307 307 307 308 307 307 307 307 307 306 307 307 307 307 306 306 306 306 307 306 306 306 305 305 305 304 304 304 304 303 303 303 302 302
304 305 306 306 306 307 307 307 307 306 306 306 306 306 306 305 305 305 305 306 306 305 305 306 305 304 304 305 305 305 305 304 304 304 304 304 304 303 303 304 303 303 302
306 307 307 307 307 306 306 306 306 306 307 307 306 306 306 306 306 306 306 306 306 306 306 306 305 305 305 305 305 304 304 303 303 303 302 303 302 302 301 301 302 303 302
307 307 307 307 307 307 307 307 307 307 307 307 307 307 307 307 307 307 307 307 306 306 306 306 305 305 306 305 305 305 305 305 305 304 303 303 302 302 302 301 301 301 301
Wind_Speed
24 26 24 20 19 19 19 17 15 14 13 12 10 9 8 5 4 4 3 3 3 3 3 3 5 6 6 7 7 7 7 8 10 10 11 12 13 14 15 17 17 17 13
20 23 23 21 20 22 22 21 19 17 14 13 12 11 8 7 5 4 4 4 3 3 3 3 4 5 5 6 7 8 9 11 9 9 9 7 8 10 11 11 10 8 11
21 23 24 23 23 24 24 22 20 18 16 15 14 11 10 9 7 6 6 4 3 3 4 5 6 6 7 7 7 7 7 9 11 12 12 10 9 10 11 10 9 9 9
22 24 25 25 25 23 24 22 21 20 18 16 16 14 13 12 9 8 7 7 5 5 5 6 6 7 7 8 8 8 8 8 10 9 10 10 9 10 11 9 7 8 8
26 27 27 26 25 23 22 21 20 22 19 17 18 18 16 14 12 10 10 9 8 8 8 8 7 6 5 6 7 9 10 11 10 8 8 8 8 7 8 9 9 10 9
29 30 31 30 27 25 22 20 21 22 21 21 21 20 18 15 13 11 11 11 10 10 10 10 9 8 8 6 6 7 8 9 9 8 7 8 7 7 8 8 9 9 8
27 30 31 29 24 22 14 15 21 26 26 24 23 22 20 17 14 12 12 12 11 11 9 9 10 10 10 9 8 7 9 10 11 10 9 8 9 7 10 10 10 9 9
22 25 24 24 23 24 30 32 35 29 32 30 25 22 21 17 14 13 12 12 12 11 11 10 11 12 11 10 10 10 11 13 13 14 13 12 12 11 13 11 13 14 13
14 18 20 17 17 16 24 30 35 40 29 32 28 24 21 17 15 13 13 13 12 12 12 11 10 10 11 11 11 11 13 14 17 17 15 13 14 13 12 13 10 11 9
11 10 9 17 26 30 27 27 31 37 35 33 34 26 15 15 14 14 13 12 11 9 9 9 7 8 10 11 11 12 12 12 13 12 12 14 14 14 15 15 13 11 9
8 11 12 13 15 17 20 26 29 34 31 37 37 26 17 13 15 14 11 10 8 5 3 4 2 4 6 8 8 8 10 10 9 11 12 13 11 8 9 12 14 16 13
6 7 7 12 19 24 24 21 29 28 34 34 28 22 18 16 16 13 10 9 9 6 4 5 4 3 5 5 6 7 10 11 12 14 15 13 9 7 9 10 12 16 20
4 7 10 14 20 24 25 16 13 33 33 32 24 17 9 11 10 7 3 11 12 10 9 10 9 9 9 9 9 10 13 14 14 15 14 13 13 13 14 15 14 13 14
1 4 9 13 13 13 18 21 16 16 19 15 13 9 6 6 5 5 9 12 13 14 15 15 15 15 15 14 15 15 16 17 16 17 18 17 15 15 14 13 13 12 13
5 6 11 13 13 12 18 21 20 21 18 13 12 11 9 10 9 10 8 10 12 12 14 17 18 19 19 18 18 18 19 19 20 20 20 20 19 18 18 19 19 17 16
5 9 14 13 14 14 12 12 12 11 11 11 9 8 7 7 9 8 7 8 9 11 13 14 16 16 17 17 18 19 18 18 19 19 18 18 19 19 19 18 21 20 20
13 11 10 10 8 11 12 7 5 5 4 6 7 7 7 6 6 7 8 9 11 13 13 14 14 15 16 17 19 20 19 18 18 18 17 17 17 19 22 20 19 19 20
6 5 5 3 5 3 4 2 2 1 2 5 5 4 4 6 8 9 8 8 8 9 10 11 12 12 13 14 15 16 16 17 19 18 18 19 20 21 21 22 18 21 22
5 6 7 7 7 6 7 7 6 5 6 6 6 6 5 6 7 7 7 7 6 6 7 7 7 9 11 10 11 12 13 13 14 15 14 16 16 17 20 21 23 23 26
3 3 3 4 6 7 7 7 7 6 6 5 5 5 5 7 9 10 10 9 7 6 6 5 6 7 6 7 8 8 8 8 10 10 12 15 15 16 16 18 18 19 17
5 4 4 4 5 4 3 4 4 4 5 5 5 5 7 8 9 9 7 7 6 6 7 5 6 5 5 5 5 6 8 9 10 10 10 11 13 13 15 17 17 17 17
6 6 6 7 7 5 5 5 5 6 6 5 5 5 7 6 7 7 5 3 5 8 7 9 8 8 8 9 10 11 12 13 13 13 13 13 12 12 12 12 12 12 12
4 4 5 6 7 8 8 9 9 8 8 7 6 5 7 7 8 8 7 7 9 10 11 12 12 13 13 14 14 16 18 18 18 18 19 18 17 15 15 14 13 12 11
6 8 9 10 10 9 8 8 8 9 8 8 7 7 8 9 10 11 11 12 13 14 14 14 14 15 15 16 18 19 18 17 16 18 19 20 20 19 18 17 16 14 13
11 11 11 10 10 9 8 7 6 6 7 8 8 9 10 11 12 12 12 11 12 13 13 13 15 16 17 18 18 19 19 22 22 20 20 20 22 22 22 23 21 20 18
10 9 8 7 7 7 7 7 8 9 9 10 12 14 15 16 17 18 18 18 19 20 20 21 23 24 24 24 24 25 28 30 28 27 26 28 27 26 26 28 27 28 27
Wind_Direction
240 240 241 238 243 227 232 243 249 266 272 270 265 272 273 271 277 278 263 256 246 249 255 272 285 291 294 298 295 286 275 265 269 277 288 287 286 286 284 282 279 273 275
243 235 236 238 242 232 234 239 248 252 248 253 255 263 255 248 261 249 233 226 226 232 249 268 287 293 297 298 304 296 282 283 286 297 293 309 293 287 289 291 290 267 257
239 234 235 238 242 238 239 244 250 247 246 248 243 245 248 245 240 235 227 220 232 244 265 289 291 295 296 296 297 304 304 294 291 291 288 292 295 290 290 294 290 272 249
237 238 240 239 242 242 242 247 255 250 245 248 243 237 228 237 239 236 223 231 246 257 272 280 282 296 302 298 299 298 298 300 302 304 303 299 295 284 295 291 290 274 256
236 234 238 240 241 238 237 243 249 251 245 249 241 232 229 227 232 234 235 242 253 270 281 274 267 275 290 297 289 290 295 299 296 299 304 301 297 295 288 289 296 286 287
238 236 233 233 234 228 230 241 252 247 239 244 235 231 230 228 231 238 239 248 254 270 281 278 263 261 278 293 298 297 294 311 309 291 284 284 297 298 297 301 308 307 297
241 237 235 232 228 221 230 263 263 259 248 239 234 232 228 228 230 234 237 243 253 268 272 268 259 256 260 271 286 286 297 308 313 308 297 289 294 294 280 296 297 304 293
253 246 241 241 249 230 260 271 247 255 247 234 233 233 230 227 232 232 232 240 255 265 271 267 259 254 250 267 268 283 291 302 307 311 303 290 284 280 277 272 285 298 301
254 249 236 227 230 256 263 263 252 243 247 244 223 223 224 225 227 228 232 242 249 263 271 269 260 247 256 263 263 278 292 301 304 306 302 294 278 271 268 270 281 289 294
203 217 274 301 293 288 287 276 259 249 252 243 221 217 210 229 223 225 226 235 245 251 261 263 259 248 255 264 269 277 288 298 306 308 306 307 299 277 261 262 264 258 261
304 308 318 315 309 305 290 269 258 250 243 228 211 208 198 227 229 216 225 228 222 245 232 249 260 284 280 274 267 271 280 290 302 314 323 321 306 294 276 277 263 247 245
16 30 24 6 3 355 334 284 249 239 221 209 200 192 191 201 222 220 223 219 219 219 221 244 258 282 293 286 280 283 284 289 298 305 313 320 297 289 286 293 281 262 255
58 51 24 11 13 21 15 1 266 232 225 194 178 167 189 159 215 218 183 230 235 242 246 256 267 275 280 287 293 293 291 295 298 292 289 298 296 280 280 281 281 280 273
343 32 18 9 15 19 41 56 74 132 140 133 137 147 146 162 166 202 221 242 251 257 260 262 266 267 269 276 282 286 287 285 288 291 284 281 288 281 281 283 281 267 265
40 23 45 58 54 51 63 73 78 87 88 91 87 109 153 190 208 226 241 254 257 261 261 258 260 261 264 270 274 279 283 288 289 290 285 279 277 281 273 268 270 269 268
49 91 79 65 66 64 66 71 83 89 105 125 143 163 196 203 212 228 249 267 273 275 271 266 264 263 266 269 271 275 283 287 286 286 288 284 281 271 274 270 268 264 261
74 99 90 87 78 76 77 64 58 106 144 177 190 200 205 229 256 278 282 284 277 274 271 271 271 273 275 275 279 282 284 285 284 286 289 288 281 276 269 272 269 264 263
86 86 97 72 120 94 117 143 262 311 90 89 80 54 5 329 314 302 312 317 305 296 286 281 281 284 283 283 282 285 289 290 292 290 286 287 291 286 282 271 266 271 267
102 99 93 87 80 64 68 91 103 91 78 65 47 33 31 22 11 3 357 351 350 336 318 313 307 303 302 303 303 306 302 304 303 300 298 296 290 292 287 282 276 276 272
25 27 44 66 71 76 85 88 82 72 70 62 45 47 21 2 358 355 351 353 1 1 353 351 340 336 336 330 331 333 343 347 344 336 329 322 314 307 304 300 294 287 285
44 68 66 68 71 69 67 61 54 43 42 40 30 16 358 15 16 17 18 21 27 24 21 10 356 351 355 2 1 343 341 336 331 330 330 331 336 330 323 314 308 303 297
53 56 57 64 62 57 57 64 61 60 54 49 34 16 17 21 9 4 347 334 350 356 353 356 344 329 316 314 313 312 309 308 310 311 311 311 315 318 318 318 315 315 316
35 29 29 39 51 59 63 64 59 53 47 42 31 10 357 347 342 336 336 325 316 317 313 313 309 306 298 292 290 290 292 295 295 294 297 296 295 298 304 305 304 308 308
65 66 66 68 69 66 59 53 50 44 33 17 2 351 346 341 331 319 309 301 299 301 297 295 292 298 297 293 289 288 289 290 294 293 291 290 284 287 290 291 289 290 297
80 79 80 79 73 66 55 47 32 15 1 353 351 344 335 329 328 326 321 316 313 310 307 302 302 299 299 296 292 288 282 296 298 292 287 283 280 280 284 281 275 275 280
77 76 73 61 43 25 11 2 355 351 349 348 345 340 334 328 323 320 317 312 310 307 305 304 301 297 296 295 293 288 291 293 291 285 282 281 277 275 271 271 275 274 269